Time,TemperatureF,DewpointF,PressureIn,WindDirection,WindDirectionDegrees,WindSpeedMPH,WindSpeedGustMPH,Humidity,HourlyPrecipIn,Conditions,Clouds,dailyrainin,SoftwareType,DateUTC
2013-08-06 00:03:00,90.5,65.6,29.82,SSW,202,8.3,-999.0,44,-99.99,,,0.00,Acu-Link.com,2013-08-06 05:03:00,
2013-08-06 00:18:00,90.0,65.1,29.82,ESE,112,9.4,-999.0,44,-99.99,,,0.00,Acu-Link.com,2013-08-06 05:18:00,
2013-08-06 00:33:00,90.0,65.1,29.82,SSW,202,11.4,-999.0,44,-99.99,,,0.00,Acu-Link.com,2013-08-06 05:33:00,
2013-08-06 00:48:00,90.1,64.6,29.81,SSE,157,7.4,-999.0,43,-99.99,,,0.00,Acu-Link.com,2013-08-06 05:48:00,
2013-08-06 01:03:00,90.0,64.4,29.81,South,180,9.8,-999.0,43,-99.99,,,0.00,Acu-Link.com,2013-08-06 06:03:00,
2013-08-06 01:18:00,89.6,64.1,29.81,South,180,7.8,-999.0,43,-99.99,,,0.00,Acu-Link.com,2013-08-06 06:18:00,
2013-08-06 01:33:00,89.2,64.4,29.81,South,180,11.0,-999.0,44,-99.99,,,0.00,Acu-Link.com,2013-08-06 06:33:00,
2013-08-06 01:48:00,88.5,63.8,29.81,South,180,11.4,-999.0,44,-99.99,,,0.00,Acu-Link.com,2013-08-06 06:48:00,
2013-08-06 02:03:00,88.2,64.7,29.81,SSW,202,14.5,-999.0,46,-99.99,,,0.00,Acu-Link.com,2013-08-06 07:03:00,
2013-08-06 02:18:00,87.6,64.9,29.81,SSE,157,10.3,-999.0,47,-99.99,,,0.00,Acu-Link.com,2013-08-06 07:18:00,
2013-08-06 02:33:00,87.1,65.0,29.81,South,180,11.9,-999.0,48,-99.99,,,0.00,Acu-Link.com,2013-08-06 07:33:00,
2013-08-06 02:49:00,86.7,65.2,29.81,SSE,157,7.8,-999.0,49,-99.99,,,0.00,Acu-Link.com,2013-08-06 07:49:00,
2013-08-06 03:04:00,86.2,65.3,29.80,South,180,5.1,-999.0,50,-99.99,,,0.00,Acu-Link.com,2013-08-06 08:04:00,
2013-08-06 03:19:00,86.2,65.3,29.80,South,180,7.4,-999.0,50,-99.99,,,0.00,Acu-Link.com,2013-08-06 08:19:00,
2013-08-06 03:34:00,86.2,65.3,29.80,South,180,7.4,-999.0,50,-99.99,,,0.00,Acu-Link.com,2013-08-06 08:34:00,
2013-08-06 03:49:00,86.2,65.3,29.80,SSW,202,9.4,-999.0,50,-99.99,,,0.00,Acu-Link.com,2013-08-06 08:49:00,
2013-08-06 04:04:00,85.5,65.8,29.80,South,180,6.7,-999.0,52,-99.99,,,0.00,Acu-Link.com,2013-08-06 09:04:00,
2013-08-06 04:19:00,84.6,66.1,29.80,SSE,157,4.7,-999.0,54,-99.99,,,0.00,Acu-Link.com,2013-08-06 09:19:00,
2013-08-06 04:34:00,83.8,65.9,29.80,SW,225,5.8,-999.0,55,-99.99,,,0.00,Acu-Link.com,2013-08-06 09:34:00,
2013-08-06 04:49:00,83.1,66.3,29.80,SE,135,4.3,-999.0,57,-99.99,,,0.00,Acu-Link.com,2013-08-06 09:49:00,
2013-08-06 05:04:00,82.8,66.4,29.81,ESE,112,5.1,-999.0,58,-99.99,,,0.00,Acu-Link.com,2013-08-06 10:04:00,
2013-08-06 05:19:00,80.6,66.8,29.82,ESE,112,0.0,-999.0,63,-99.99,,,0.00,Acu-Link.com,2013-08-06 10:19:00,
2013-08-06 05:34:00,79.7,66.4,29.82,SE,135,0.0,-999.0,64,-99.99,,,0.00,Acu-Link.com,2013-08-06 10:34:00,
2013-08-06 05:49:00,79.3,66.5,29.82,ESE,112,0.0,-999.0,65,-99.99,,,0.00,Acu-Link.com,2013-08-06 10:49:00,
2013-08-06 06:04:00,78.6,66.7,29.82,SE,135,0.0,-999.0,67,-99.99,,,0.00,Acu-Link.com,2013-08-06 11:04:00,
2013-08-06 06:19:00,78.1,67.1,29.82,SE,135,0.0,-999.0,69,-99.99,,,0.00,Acu-Link.com,2013-08-06 11:19:00,
2013-08-06 06:34:00,77.5,67.4,29.82,SSE,157,0.0,-999.0,71,-99.99,,,0.00,Acu-Link.com,2013-08-06 11:34:00,
2013-08-06 06:49:00,77.0,67.7,29.82,ESE,112,1.1,-999.0,73,-99.99,,,0.00,Acu-Link.com,2013-08-06 11:49:00,
2013-08-06 07:04:00,76.5,67.5,29.82,ESE,112,0.0,-999.0,74,-99.99,,,0.00,Acu-Link.com,2013-08-06 12:04:00,
2013-08-06 07:20:00,76.8,67.9,29.82,SE,135,0.0,-999.0,74,-99.99,,,0.00,Acu-Link.com,2013-08-06 12:20:00,
2013-08-06 07:35:00,79.3,68.7,29.82,SSE,157,0.0,-999.0,70,-99.99,,,0.00,Acu-Link.com,2013-08-06 12:35:00,
2013-08-06 07:50:00,80.2,68.3,29.83,South,180,0.0,-999.0,67,-99.99,,,0.00,Acu-Link.com,2013-08-06 12:50:00,
2013-08-06 08:05:00,82.4,67.1,29.83,SSE,157,1.1,-999.0,60,-99.99,,,0.00,Acu-Link.com,2013-08-06 13:05:00,
2013-08-06 08:20:00,83.8,65.9,29.83,SSE,157,0.0,-999.0,55,-99.99,,,0.00,Acu-Link.com,2013-08-06 13:20:00,
2013-08-06 08:35:00,84.9,66.4,29.83,South,180,4.7,-999.0,54,-99.99,,,0.00,Acu-Link.com,2013-08-06 13:35:00,
2013-08-06 08:50:00,86.7,65.8,29.83,South,180,6.3,-999.0,50,-99.99,,,0.00,Acu-Link.com,2013-08-06 13:50:00,
2013-08-06 09:05:00,87.6,65.5,29.83,SSW,202,0.0,-999.0,48,-99.99,,,0.00,Acu-Link.com,2013-08-06 14:05:00,
2013-08-06 09:20:00,88.9,65.4,29.83,SW,225,0.0,-999.0,46,-99.99,,,0.00,Acu-Link.com,2013-08-06 14:20:00,
2013-08-06 09:35:00,90.0,65.7,29.83,SSW,202,0.0,-999.0,45,-99.99,,,0.00,Acu-Link.com,2013-08-06 14:35:00,
2013-08-06 09:50:00,92.3,65.1,29.83,WSW,247,5.8,-999.0,41,-99.99,,,0.00,Acu-Link.com,2013-08-06 14:50:00,
2013-08-06 10:05:00,92.5,64.6,29.83,South,180,4.7,-999.0,40,-99.99,,,0.00,Acu-Link.com,2013-08-06 15:05:00,
2013-08-06 10:20:00,94.1,64.6,29.82,WNW,292,7.4,-999.0,38,-99.99,,,0.00,Acu-Link.com,2013-08-06 15:20:00,
2013-08-06 10:35:00,95.4,64.9,29.82,West,270,10.3,-999.0,37,-99.99,,,0.00,Acu-Link.com,2013-08-06 15:35:00,
2013-08-06 10:50:00,95.7,65.2,29.82,WSW,247,8.9,-999.0,37,-99.99,,,0.00,Acu-Link.com,2013-08-06 15:50:00,
2013-08-06 11:05:00,96.8,64.6,29.82,West,270,5.8,-999.0,35,-99.99,,,0.00,Acu-Link.com,2013-08-06 16:05:00,
2013-08-06 11:20:00,97.0,64.7,29.82,WSW,247,7.8,-999.0,35,-99.99,,,0.00,Acu-Link.com,2013-08-06 16:20:00,
2013-08-06 11:36:00,98.6,65.3,29.82,West,270,13.0,-999.0,34,-99.99,,,0.00,Acu-Link.com,2013-08-06 16:36:00,
2013-08-06 11:51:00,98.8,63.7,29.81,South,180,10.3,-999.0,32,-99.99,,,0.00,Acu-Link.com,2013-08-06 16:51:00,
2013-08-06 12:06:00,100.2,65.0,29.81,South,180,8.3,-999.0,32,-99.99,,,0.00,Acu-Link.com,2013-08-06 17:06:00,
2013-08-06 12:21:00,102.0,65.6,29.81,SE,135,6.7,-999.0,31,-99.99,,,0.00,Acu-Link.com,2013-08-06 17:21:00,
2013-08-06 12:36:00,102.6,64.2,29.80,SW,225,11.4,-999.0,29,-99.99,,,0.00,Acu-Link.com,2013-08-06 17:36:00,
2013-08-06 12:51:00,103.3,62.7,29.80,SSE,157,6.3,-999.0,27,-99.99,,,0.00,Acu-Link.com,2013-08-06 17:51:00,
2013-08-06 13:06:00,103.8,64.2,29.80,South,180,6.3,-999.0,28,-99.99,,,0.00,Acu-Link.com,2013-08-06 18:06:00,
2013-08-06 13:21:00,103.5,63.9,29.79,South,180,8.9,-999.0,28,-99.99,,,0.00,Acu-Link.com,2013-08-06 18:21:00,
2013-08-06 13:36:00,105.1,60.9,29.79,SSW,202,11.4,-999.0,24,-99.99,,,0.00,Acu-Link.com,2013-08-06 18:36:00,
2013-08-06 13:51:00,104.9,61.9,29.78,SE,135,8.9,-999.0,25,-99.99,,,0.00,Acu-Link.com,2013-08-06 18:51:00,
2013-08-06 14:06:00,104.2,60.1,29.78,South,180,8.3,-999.0,24,-99.99,,,0.00,Acu-Link.com,2013-08-06 19:06:00,
2013-08-06 14:21:00,106.2,60.6,29.78,WSW,247,8.3,-999.0,23,-99.99,,,0.00,Acu-Link.com,2013-08-06 19:21:00,
2013-08-06 14:36:00,105.3,61.0,29.77,South,180,11.0,-999.0,24,-99.99,,,0.00,Acu-Link.com,2013-08-06 19:36:00,
2013-08-06 14:51:00,106.3,60.7,29.76,South,180,13.0,-999.0,23,-99.99,,,0.00,Acu-Link.com,2013-08-06 19:51:00,
2013-08-06 15:06:00,106.0,59.2,29.76,SSW,202,7.4,-999.0,22,-99.99,,,0.00,Acu-Link.com,2013-08-06 20:06:00,
2013-08-06 15:21:00,106.3,60.7,29.75,SSE,157,8.3,-999.0,23,-99.99,,,0.00,Acu-Link.com,2013-08-06 20:21:00,
2013-08-06 15:36:00,106.9,59.9,29.75,SE,135,4.7,-999.0,22,-99.99,,,0.00,Acu-Link.com,2013-08-06 20:36:00,
2013-08-06 15:52:00,107.1,60.1,29.74,South,180,11.9,-999.0,22,-99.99,,,0.00,Acu-Link.com,2013-08-06 20:52:00,
2013-08-06 16:07:00,107.1,61.3,29.74,South,180,8.3,-999.0,23,-99.99,,,0.00,Acu-Link.com,2013-08-06 21:07:00,
2013-08-06 16:22:00,107.1,58.8,29.73,South,180,11.4,-999.0,21,-99.99,,,0.00,Acu-Link.com,2013-08-06 21:22:00,
2013-08-06 16:37:00,108.3,59.8,29.72,SE,135,0.0,-999.0,21,-99.99,,,0.00,Acu-Link.com,2013-08-06 21:37:00,
2013-08-06 16:52:00,107.2,60.2,29.72,South,180,12.5,-999.0,22,-99.99,,,0.00,Acu-Link.com,2013-08-06 21:52:00,
2013-08-06 17:07:00,106.9,58.6,29.71,SSW,202,11.4,-999.0,21,-99.99,,,0.00,Acu-Link.com,2013-08-06 22:07:00,
2013-08-06 17:22:00,107.6,60.5,29.71,SSW,202,5.1,-999.0,22,-99.99,,,0.00,Acu-Link.com,2013-08-06 22:22:00,
2013-08-06 17:37:00,107.1,60.1,29.70,SSE,157,8.3,-999.0,22,-99.99,,,0.00,Acu-Link.com,2013-08-06 22:37:00,
2013-08-06 17:52:00,107.1,58.8,29.70,SSW,202,4.3,-999.0,21,-99.99,,,0.00,Acu-Link.com,2013-08-06 22:52:00,
2013-08-06 18:07:00,106.5,58.3,29.70,South,180,10.3,-999.0,21,-99.99,,,0.00,Acu-Link.com,2013-08-06 23:07:00,
2013-08-06 18:22:00,106.3,59.5,29.70,SE,135,11.4,-999.0,22,-99.99,,,0.00,Acu-Link.com,2013-08-06 23:22:00,
2013-08-06 18:37:00,106.9,58.6,29.69,SSW,202,10.3,-999.0,21,-99.99,,,0.00,Acu-Link.com,2013-08-06 23:37:00,
2013-08-06 18:52:00,106.3,59.5,29.69,South,180,11.0,-999.0,22,-99.99,,,0.00,Acu-Link.com,2013-08-06 23:52:00,
2013-08-06 19:07:00,105.3,58.6,29.69,SE,135,6.7,-999.0,22,-99.99,,,0.00,Acu-Link.com,2013-08-07 00:07:00,
2013-08-06 19:22:00,105.1,59.7,29.68,South,180,11.4,-999.0,23,-99.99,,,0.00,Acu-Link.com,2013-08-07 00:22:00,
2013-08-06 19:37:00,104.2,60.1,29.68,South,180,10.3,-999.0,24,-99.99,,,0.00,Acu-Link.com,2013-08-07 00:37:00,
2013-08-06 19:52:00,103.3,60.5,29.69,SSE,157,7.4,-999.0,25,-99.99,,,0.00,Acu-Link.com,2013-08-07 00:52:00,
2013-08-06 20:07:00,102.2,59.6,29.69,South,180,11.0,-999.0,25,-99.99,,,0.00,Acu-Link.com,2013-08-07 01:07:00,
2013-08-06 20:23:00,101.5,60.1,29.69,South,180,7.8,-999.0,26,-99.99,,,0.00,Acu-Link.com,2013-08-07 01:23:00,
2013-08-06 20:38:00,100.2,62.2,29.70,SSE,157,9.8,-999.0,29,-99.99,,,0.00,Acu-Link.com,2013-08-07 01:38:00,
2013-08-06 20:53:00,99.3,63.3,29.70,South,180,7.8,-999.0,31,-99.99,,,0.00,Acu-Link.com,2013-08-07 01:53:00,
2013-08-06 21:08:00,98.6,63.6,29.71,South,180,10.3,-999.0,32,-99.99,,,0.00,Acu-Link.com,2013-08-07 02:08:00,
2013-08-06 21:23:00,97.5,63.5,29.72,SSE,157,14.1,-999.0,33,-99.99,,,0.00,Acu-Link.com,2013-08-07 02:23:00,
2013-08-06 21:38:00,96.6,63.6,29.72,SE,135,6.3,-999.0,34,-99.99,,,0.00,Acu-Link.com,2013-08-07 02:38:00,
2013-08-06 21:53:00,96.1,63.9,29.73,ESE,112,8.9,-999.0,35,-99.99,,,0.00,Acu-Link.com,2013-08-07 02:53:00,
2013-08-06 22:08:00,95.7,63.6,29.73,ESE,112,12.5,-999.0,35,-99.99,,,0.00,Acu-Link.com,2013-08-07 03:08:00,
2013-08-06 22:23:00,95.0,63.8,29.74,South,180,13.4,-999.0,36,-99.99,,,0.00,Acu-Link.com,2013-08-07 03:23:00,
2013-08-06 22:38:00,94.5,64.1,29.75,SSE,157,9.8,-999.0,37,-99.99,,,0.00,Acu-Link.com,2013-08-07 03:38:00,
2013-08-06 22:53:00,93.7,64.2,29.75,ESE,112,6.7,-999.0,38,-99.99,,,0.00,Acu-Link.com,2013-08-07 03:53:00,
2013-08-06 23:08:00,93.9,64.4,29.75,South,180,8.3,-999.0,38,-99.99,,,0.00,Acu-Link.com,2013-08-07 04:08:00,
2013-08-06 23:24:00,93.7,65.0,29.75,SSE,157,6.7,-999.0,39,-99.99,,,0.00,Acu-Link.com,2013-08-07 04:24:00,
2013-08-06 23:39:00,92.8,64.9,29.75,SSE,157,4.7,-999.0,40,-99.99,,,0.00,Acu-Link.com,2013-08-07 04:39:00,
2013-08-06 23:54:00,91.9,64.8,29.75,South,180,7.8,-999.0,41,-99.99,,,0.00,Acu-Link.com,2013-08-07 04:54:00,